SCP
-0 0 0 0 0 0 0 0 0 0 0 0 0 0 2 1 0 0 0 0 0 0 0 0 0 0 0 0 0 0 0 0
0 0 0 0 0 0 0 0 0 0 0 0 0 1 1 1 0 0 0 0 0 0 0 0 0 0 0 0 0 0 0 0
0 0 -0 -0 0 -0 0 0 0 0 0 0 1 1 2 1 0 0 0 0 0 0 0 0 0 0 0 0 0 0 0 0
0 -0 -0 -0 -0 -0 -0 0 0 0 0 0 0 0 0 0 0 0 0 0 0 0 0 0 0 0 0 0 0 0 0 0
-0 -0 -0 -0 -0 -0 -0 0 0 0 0 0 0 0 0 0 0 0 0 0 0 0 0 0 0 0 0 0 0 0 0 0
-0 -0 -0 -0 -0 -0 0 0 0 0 0 0 0 0 0 0 0 0 0 0 0 0 0 0 0 0 0 0 0 0 0 0
0 -0 -0 -0 0 0 0 0 0 0 0 0 0 0 0 0 0 0 0 0 0 0 0 0 0 0 0 0 0 0 0 0
0 -0 -0 -0 0 0 0 0 0 0 0 0 0 0 0 0 0 0 0 0 0 0 0 0 0 0 0 0 0 0 0 0
0 -0 -0 -0 0 0 0 0 0 0 0 0 0 0 0 0 0 0 0 0 0 0 0 0 0 0 0 0 0 0 0 0
0 0 -0 -0 -0 -0 0 0 0 0 0 0 0 0 0 0 0 0 0 0 0 0 0 0 0 0 0 0 0 0 0 0
0 0 0 -0 -0 -0 -0 0 0 0 0 0 0 0 0 0 0 0 0 0 0 0 0 0 0 0 0 0 0 0 0 0
0 0 -0 -0 0 0 -0 -0 -0 0 0 0 0 0 0 0 0 0 0 0 0 0 0 0 0 0 0 0 0 0 0 0
0 0 -0 -0 -0 -0 0 0 0 -0 0 0 0 0 0 0 0 0 0 0 0 0 0 0 0 0 0 0 0 0 0 0
0 0 0 0 0 0 -0 0 0 0 0 0 0 0 0 0 0 0 0 0 0 0 0 0 0 0 0 0 0 0 0 0
0 0 0 0 0 0 0 0 0 0 0 0 0 0 0 0 0 0 0 0 0 0 0 0 0 0 0 0 0 0 0 0
0 -0 -0 -0 -0 -0 -0 -0 0 -0 -0 0 0 0 0 0 0 0 0 0 0 0 0 0 0 0 0 0 0 0 0 0
-0 -0 0 -0 -0 -0 -0 -0 -0 -0 0 0 -0 -0 -0 -0 -0 0 0 0 0 0 0 0 0 0 0 0 0 0 0 0
0 0 0 0 0 -0 -0 -0 -0 -0 0 -0 -0 -0 -0 -0 -0 -0 -0 -0 0 0 0 0 0 0 0 0 0 0 0 0
0 0 0 0 0 -0 -0 -0 -0 -0 -0 -0 -0 -0 -0 -0 -0 -0 -0 -0 -0 0 0 0 0 0 0 0 0 0 0 0
0 0 0 0 0 -0 -0 -0 -0 -0 -0 -0 -0 -0 -0 -0 -0 -0 -0 -0 -0 -0 0 0 0 0 0 0 0 0 0 0
Wind_Speed_500mb
58 57 55 53 51 47 47 48 54 62 66 72 81 92 71 77 74 71 101 95 97 94 84 78 69 80 97 95 115 121 116 109
58 57 56 54 47 40 35 32 44 54 65 72 81 80 80 77 78 87 74 101 91 91 79 55 59 77 91 98 97 98 104 117
62 62 64 59 51 39 28 16 26 45 53 62 76 75 82 78 83 78 77 82 76 89 61 44 33 48 55 75 55 66 91 97
67 67 69 64 58 47 34 18 11 27 35 60 77 85 77 84 69 69 55 54 62 61 57 61 51 33 19 26 44 52 45 66
70 72 72 67 64 56 47 33 37 38 53 73 84 79 70 59 58 79 63 57 61 69 70 56 47 50 56 51 36 50 53 52
74 75 75 74 75 66 59 56 54 45 67 76 75 67 68 59 51 58 67 76 71 73 70 66 70 58 58 55 39 36 39 46
71 74 73 71 76 72 74 58 63 70 77 78 76 75 67 69 64 54 47 55 63 75 74 60 60 66 53 58 51 50 57 57
61 65 67 68 72 74 74 64 77 80 84 86 82 79 66 77 68 65 58 62 51 48 46 42 40 39 47 46 50 52 51 58
54 55 58 62 67 72 73 74 84 86 82 78 77 74 58 68 67 62 50 48 47 44 42 37 35 32 32 33 29 31 46 50
46 48 50 56 60 70 77 74 89 94 84 75 72 63 51 58 56 51 43 46 44 42 36 28 26 23 24 26 29 36 41 41
43 45 50 52 55 60 72 72 91 80 75 73 72 69 65 57 47 38 33 38 33 32 29 23 22 22 26 26 28 28 37 41
46 52 53 53 55 57 65 68 66 64 62 71 73 68 63 54 52 48 43 38 32 26 23 19 17 15 16 17 20 22 24 26
45 49 51 53 55 56 61 57 53 56 59 65 65 62 55 53 51 47 42 40 39 32 28 22 15 13 14 15 15 16 18 19
40 43 46 48 50 53 57 54 51 51 56 57 55 55 54 53 50 47 41 38 36 32 28 23 21 19 11 13 18 22 23 23
33 39 44 47 48 48 46 48 47 48 48 48 49 48 46 46 45 43 43 39 34 30 27 22 17 13 11 9 9 12 16 23
26 33 38 42 45 44 42 40 40 40 41 42 41 39 37 39 41 40 40 34 31 29 24 18 13 10 8 6 6 7 9 12
16 23 28 33 37 39 39 38 38 36 35 34 33 32 33 32 31 30 29 28 27 26 24 21 15 9 3 2 4 4 3 6
11 16 20 25 28 32 33 33 31 30 29 29 28 28 27 26 24 21 19 17 18 18 19 19 16 11 7 1 7 9 8 7
5 12 16 20 24 26 28 29 30 29 26 24 22 20 18 16 16 16 14 12 11 10 11 12 13 12 11 8 4 11 13 11
5 8 13 16 20 23 26 27 26 25 24 22 22 20 18 15 12 9 7 7 6 5 5 5 6 8 9 9 6 7 14 13
Wind_Direction_500mb
328 323 320 316 311 301 285 273 262 248 233 223 221 224 211 219 212 203 200 208 202 203 205 204 205 206 211 212 211 204 200 202
331 330 334 337 335 319 295 277 254 245 233 217 216 213 198 210 213 211 210 204 200 196 196 192 204 210 214 216 206 210 209 204
340 346 352 352 352 344 331 300 239 229 222 209 207 193 194 200 205 205 208 200 182 184 162 160 143 201 213 215 218 224 216 212
352 356 358 4 4 1 5 20 151 183 183 193 191 180 183 197 191 168 171 179 185 186 177 176 178 168 166 204 221 209 214 223
357 2 8 12 14 12 25 51 96 123 165 171 168 168 175 175 180 178 167 180 184 176 168 170 172 186 190 198 199 212 211 222
358 5 12 15 20 25 37 58 88 90 132 126 138 146 166 163 181 167 172 184 176 177 168 165 169 170 180 183 170 184 188 201
2 10 18 18 25 29 44 53 66 89 109 115 124 142 147 145 150 143 143 151 170 175 173 176 177 182 187 190 187 183 185 195
3 7 18 24 33 36 44 54 66 82 93 101 106 111 110 126 130 145 138 150 146 148 152 156 171 190 203 218 219 205 199 205
8 11 20 29 37 48 50 55 63 74 82 87 96 104 110 103 108 112 128 132 136 133 134 148 162 171 173 180 194 207 211 206
17 18 25 34 38 48 51 51 59 64 70 79 88 93 100 100 102 100 106 102 111 117 140 152 169 178 189 202 204 209 222 212
38 33 36 40 43 48 52 48 59 59 65 73 78 82 88 92 101 109 112 107 106 113 119 138 147 161 187 193 202 200 207 207
33 45 44 44 47 48 53 54 57 62 64 70 75 78 79 81 83 87 95 108 118 124 132 141 158 168 177 163 178 188 191 195
41 42 46 47 49 49 53 53 55 61 67 69 72 76 80 80 84 88 91 96 97 103 107 115 129 179 212 213 206 202 201 201
47 48 48 51 50 49 50 51 52 57 61 64 68 69 71 73 75 79 81 85 89 94 97 101 100 98 138 191 220 225 218 217
43 47 50 48 47 52 51 48 49 54 58 62 64 66 67 69 71 74 75 76 78 80 84 87 88 101 121 133 162 193 207 219
38 41 43 42 43 42 44 48 51 54 58 60 60 62 65 67 67 66 67 65 67 69 75 79 79 81 99 131 163 197 211 216
36 37 40 40 39 38 36 36 36 37 44 49 54 57 58 60 63 61 62 59 55 54 54 54 50 47 62 189 207 217 215 215
29 27 29 33 33 31 29 28 29 30 32 34 36 39 43 51 54 52 54 54 49 42 38 37 36 27 13 287 212 227 217 223
358 11 8 15 18 18 16 16 17 19 21 26 31 36 40 39 35 34 38 36 29 35 30 24 18 16 13 354 293 234 231 216
274 337 348 356 0 2 2 2 6 8 10 13 18 22 25 27 27 26 21 17 9 354 359 8 3 6 0 346 318 254 244 228
Wind_Speed_850mb
58 57 55 53 51 47 47 48 54 62 66 72 81 92 71 77 74 71 101 95 97 94 84 78 69 80 97 95 115 121 116 109
58 57 56 54 47 40 35 32 44 54 65 72 81 80 80 77 78 87 74 101 91 91 79 55 59 77 91 98 97 98 104 117
62 62 64 59 51 39 28 16 26 45 53 62 76 75 82 78 83 78 77 82 76 89 61 44 33 48 55 75 55 66 91 97
67 67 69 64 58 47 34 18 11 27 35 60 77 85 77 84 69 69 55 54 62 61 57 61 51 33 19 26 44 52 45 66
70 72 72 67 64 56 47 33 37 38 53 73 84 79 70 59 58 79 63 57 61 69 70 56 47 50 56 51 36 50 53 52
74 75 75 74 75 66 59 56 54 45 67 76 75 67 68 59 51 58 67 76 71 73 70 66 70 58 58 55 39 36 39 46
71 74 73 71 76 72 74 58 63 70 77 78 76 75 67 69 64 54 47 55 63 75 74 60 60 66 53 58 51 50 57 57
61 65 67 68 72 74 74 64 77 80 84 86 82 79 66 77 68 65 58 62 51 48 46 42 40 39 47 46 50 52 51 58
54 55 58 62 67 72 73 74 84 86 82 78 77 74 58 68 67 62 50 48 47 44 42 37 35 32 32 33 29 31 46 50
46 48 50 56 60 70 77 74 89 94 84 75 72 63 51 58 56 51 43 46 44 42 36 28 26 23 24 26 29 36 41 41
43 45 50 52 55 60 72 72 91 80 75 73 72 69 65 57 47 38 33 38 33 32 29 23 22 22 26 26 28 28 37 41
46 52 53 53 55 57 65 68 66 64 62 71 73 68 63 54 52 48 43 38 32 26 23 19 17 15 16 17 20 22 24 26
45 49 51 53 55 56 61 57 53 56 59 65 65 62 55 53 51 47 42 40 39 32 28 22 15 13 14 15 15 16 18 19
40 43 46 48 50 53 57 54 51 51 56 57 55 55 54 53 50 47 41 38 36 32 28 23 21 19 11 13 18 22 23 23
33 39 44 47 48 48 46 48 47 48 48 48 49 48 46 46 45 43 43 39 34 30 27 22 17 13 11 9 9 12 16 23
26 33 38 42 45 44 42 40 40 40 41 42 41 39 37 39 41 40 40 34 31 29 24 18 13 10 8 6 6 7 9 12
16 23 28 33 37 39 39 38 38 36 35 34 33 32 33 32 31 30 29 28 27 26 24 21 15 9 3 2 4 4 3 6
11 16 20 25 28 32 33 33 31 30 29 29 28 28 27 26 24 21 19 17 18 18 19 19 16 11 7 1 7 9 8 7
5 12 16 20 24 26 28 29 30 29 26 24 22 20 18 16 16 16 14 12 11 10 11 12 13 12 11 8 4 11 13 11
5 8 13 16 20 23 26 27 26 25 24 22 22 20 18 15 12 9 7 7 6 5 5 5 6 8 9 9 6 7 14 13
Wind_Direction_850mb
328 323 320 316 311 301 285 273 262 248 233 223 221 224 211 219 212 203 200 208 202 203 205 204 205 206 211 212 211 204 200 202
331 330 334 337 335 319 295 277 254 245 233 217 216 213 198 210 213 211 210 204 200 196 196 192 204 210 214 216 206 210 209 204
340 346 352 352 352 344 331 300 239 229 222 209 207 193 194 200 205 205 208 200 182 184 162 160 143 201 213 215 218 224 216 212
352 356 358 4 4 1 5 20 151 183 183 193 191 180 183 197 191 168 171 179 185 186 177 176 178 168 166 204 221 209 214 223
357 2 8 12 14 12 25 51 96 123 165 171 168 168 175 175 180 178 167 180 184 176 168 170 172 186 190 198 199 212 211 222
358 5 12 15 20 25 37 58 88 90 132 126 138 146 166 163 181 167 172 184 176 177 168 165 169 170 180 183 170 184 188 201
2 10 18 18 25 29 44 53 66 89 109 115 124 142 147 145 150 143 143 151 170 175 173 176 177 182 187 190 187 183 185 195
3 7 18 24 33 36 44 54 66 82 93 101 106 111 110 126 130 145 138 150 146 148 152 156 171 190 203 218 219 205 199 205
8 11 20 29 37 48 50 55 63 74 82 87 96 104 110 103 108 112 128 132 136 133 134 148 162 171 173 180 194 207 211 206
17 18 25 34 38 48 51 51 59 64 70 79 88 93 100 100 102 100 106 102 111 117 140 152 169 178 189 202 204 209 222 212
38 33 36 40 43 48 52 48 59 59 65 73 78 82 88 92 101 109 112 107 106 113 119 138 147 161 187 193 202 200 207 207
33 45 44 44 47 48 53 54 57 62 64 70 75 78 79 81 83 87 95 108 118 124 132 141 158 168 177 163 178 188 191 195
41 42 46 47 49 49 53 53 55 61 67 69 72 76 80 80 84 88 91 96 97 103 107 115 129 179 212 213 206 202 201 201
47 48 48 51 50 49 50 51 52 57 61 64 68 69 71 73 75 79 81 85 89 94 97 101 100 98 138 191 220 225 218 217
43 47 50 48 47 52 51 48 49 54 58 62 64 66 67 69 71 74 75 76 78 80 84 87 88 101 121 133 162 193 207 219
38 41 43 42 43 42 44 48 51 54 58 60 60 62 65 67 67 66 67 65 67 69 75 79 79 81 99 131 163 197 211 216
36 37 40 40 39 38 36 36 36 37 44 49 54 57 58 60 63 61 62 59 55 54 54 54 50 47 62 189 207 217 215 215
29 27 29 33 33 31 29 28 29 30 32 34 36 39 43 51 54 52 54 54 49 42 38 37 36 27 13 287 212 227 217 223
358 11 8 15 18 18 16 16 17 19 21 26 31 36 40 39 35 34 38 36 29 35 30 24 18 16 13 354 293 234 231 216
274 337 348 356 0 2 2 2 6 8 10 13 18 22 25 27 27 26 21 17 9 354 359 8 3 6 0 346 318 254 244 228